TimeEDT,TemperatureF,Dew PointF,Humidity,Sea Level PressureIn,VisibilityMPH,Wind Direction,Wind SpeedMPH,Gust SpeedMPH,PrecipitationIn,Events,Conditions,WindDirDegrees,DateUTC
12:03 AM,64.4,59.0,83,30.15,10.0,NNE,11.5,-,N/A,,Overcast,30,2013-10-15 04:03:00
12:13 AM,64.4,59.0,83,30.14,10.0,NNE,11.5,-,N/A,,Overcast,30,2013-10-15 04:13:00
12:58 AM,64.4,58.8,82,30.13,10.0,NNE,10.4,-,N/A,,Overcast,30,2013-10-15 04:58:00
1:58 AM,64.0,58.5,82,30.13,10.0,NNE,10.4,-,N/A,,Overcast,30,2013-10-15 05:58:00
2:38 AM,62.6,57.2,82,30.13,10.0,NNE,11.5,-,N/A,,Overcast,30,2013-10-15 06:38:00
2:58 AM,62.2,57.7,85,30.13,10.0,NNE,9.2,-,N/A,,Mostly Cloudy,20,2013-10-15 06:58:00
3:13 AM,62.6,57.2,82,30.13,10.0,NNE,8.1,-,N/A,,Overcast,20,2013-10-15 07:13:00
3:18 AM,62.6,57.2,82,30.12,10.0,NNE,10.4,-,N/A,,Overcast,20,2013-10-15 07:18:00
3:58 AM,61.2,57.7,88,30.12,10.0,NNE,10.4,-,N/A,,Overcast,30,2013-10-15 07:58:00
4:58 AM,59.4,56.8,91,30.12,10.0,NNE,9.2,-,N/A,,Partly Cloudy,30,2013-10-15 08:58:00
5:58 AM,58.8,56.5,92,30.12,10.0,NNE,10.4,-,N/A,,Scattered Clouds,20,2013-10-15 09:58:00
6:58 AM,58.1,55.6,91,30.12,10.0,NNE,6.9,-,N/A,,Partly Cloudy,20,2013-10-15 10:58:00
7:53 AM,57.2,55.4,94,30.12,10.0,NE,5.8,-,N/A,,Mostly Cloudy,40,2013-10-15 11:53:00
7:58 AM,57.0,55.0,93,30.12,10.0,NE,5.8,-,N/A,,Mostly Cloudy,40,2013-10-15 11:58:00
8:53 AM,59.0,55.4,88,30.14,10.0,NNE,11.5,-,N/A,,Scattered Clouds,20,2013-10-15 12:53:00
8:58 AM,59.4,55.4,87,30.14,10.0,NNE,11.5,-,N/A,,Scattered Clouds,30,2013-10-15 12:58:00
9:58 AM,63.5,54.5,72,30.14,10.0,NE,17.3,-,N/A,,Clear,40,2013-10-15 13:58:00
10:58 AM,67.3,53.8,62,30.12,10.0,NE,12.7,-,N/A,,Clear,40,2013-10-15 14:58:00
11:58 AM,69.4,53.2,56,30.11,10.0,NE,12.7,-,N/A,,Clear,50,2013-10-15 15:58:00
12:58 PM,72.3,52.7,50,30.08,10.0,NNE,10.4,-,N/A,,Clear,30,2013-10-15 16:58:00
1:58 PM,73.6,49.6,43,30.06,10.0,NNE,11.5,-,N/A,,Clear,30,2013-10-15 17:58:00
2:58 PM,74.8,50.7,43,30.03,10.0,North,8.1,-,N/A,,Clear,10,2013-10-15 18:58:00
3:58 PM,76.1,50.0,40,30.02,10.0,NNW,5.8,-,N/A,,Clear,330,2013-10-15 19:58:00
4:58 PM,75.9,49.8,40,30.01,10.0,North,8.1,-,N/A,,Clear,10,2013-10-15 20:58:00
5:58 PM,72.3,51.8,48,30.02,10.0,NNE,4.6,-,N/A,,Clear,20,2013-10-15 21:58:00
6:58 PM,67.8,53.4,60,30.04,10.0,North,5.8,-,N/A,,Clear,10,2013-10-15 22:58:00
7:58 PM,63.1,54.1,72,30.04,10.0,NE,5.8,-,N/A,,Clear,40,2013-10-15 23:58:00
8:58 PM,63.1,53.4,71,30.04,10.0,NE,5.8,-,N/A,,Clear,50,2013-10-16 00:58:00
9:58 PM,61.3,53.4,75,30.04,10.0,NE,5.8,-,N/A,,Clear,40,2013-10-16 01:58:00
10:58 PM,61.5,53.8,76,30.04,10.0,NE,4.6,-,N/A,,Clear,40,2013-10-16 02:58:00
11:58 PM,60.3,54.1,80,30.04,10.0,NE,1.2,-,N/A,,Clear,40,2013-10-16 03:58:00